CXPPV SUMU-SAEZ

Flight info

Callsign CXPPV
Flight time 0h 30m
Altitude 16000
Route DAGUS A306 UGIMI
Aircraft A333/H-SDE3GHIJ2J3J5M1RVWXY/LB2D1

Departure

Time 2026-05-07 18:05
Airport Carrasco General Cesáreo L. Berisso International Airport (SUMU)

Arrival

Time 2026-05-07 18:36
Airport Ezeiza International Airport - Ministro Pistarini (SAEZ)
Time Latitude Longitude Altitude Speed Heading
2026-05-07 16:41 -34.83580 -56.01723 77 ft 0 kts 143°
2026-05-07 17:40 -34.83556 -56.01724 66 ft 0 kts 143°
2026-05-07 17:54 -34.83548 -56.01731 66 ft 3 kts 141°
2026-05-07 17:54 -34.83539 -56.01740 66 ft 0 kts 138°
2026-05-07 17:55 -34.83536 -56.01743 66 ft 3 kts 134°
2026-05-07 17:55 -34.83526 -56.01762 66 ft 3 kts 120°
2026-05-07 17:56 -34.83519 -56.01783 66 ft 3 kts 82°
2026-05-07 17:56 -34.83521 -56.01806 66 ft 3 kts 59°
2026-05-07 17:56 -34.83532 -56.01824 66 ft 3 kts 49°
2026-05-07 17:56 -34.83543 -56.01839 66 ft 0 kts 49°
2026-05-07 17:58 -34.83539 -56.01833 66 ft 3 kts 49°
2026-05-07 17:59 -34.83519 -56.01805 66 ft 5 kts 51°
2026-05-07 17:59 -34.83492 -56.01766 66 ft 6 kts 40°
2026-05-07 17:59 -34.83453 -56.01766 71 ft 7 kts 334°
2026-05-07 17:59 -34.83406 -56.01802 82 ft 6 kts 328°
2026-05-07 18:00 -34.83364 -56.01836 89 ft 9 kts 326°
2026-05-07 18:00 -34.83310 -56.01866 90 ft 8 kts
2026-05-07 18:00 -34.83280 -56.01827 93 ft 8 kts 56°
2026-05-07 18:00 -34.83248 -56.01772 91 ft 11 kts 54°
2026-05-07 18:01 -34.83217 -56.01723 97 ft 4 kts 53°
2026-05-07 18:01 -34.83201 -56.01697 98 ft 4 kts 53°
2026-05-07 18:01 -34.83179 -56.01661 96 ft 7 kts 53°
2026-05-07 18:01 -34.83139 -56.01595 104 ft 11 kts 53°
2026-05-07 18:02 -34.83033 -56.01418 107 ft 14 kts 53°
2026-05-07 18:02 -34.82975 -56.01324 111 ft 13 kts 53°
2026-05-07 18:02 -34.82926 -56.01244 109 ft 11 kts 53°
2026-05-07 18:03 -34.82866 -56.01159 113 ft 14 kts 36°
2026-05-07 18:03 -34.82786 -56.01144 112 ft 10 kts 350°
2026-05-07 18:03 -34.82722 -56.01175 113 ft 9 kts 323°
2026-05-07 18:03 -34.82712 -56.01225 112 ft 6 kts 248°
2026-05-07 18:04 -34.82725 -56.01249 110 ft 1 kts 233°
2026-05-07 18:04 -34.82729 -56.01256 110 ft 7 kts 233°
2026-05-07 18:04 -34.82895 -56.01536 106 ft 75 kts 234°
2026-05-07 18:04 -34.83321 -56.02240 92 ft 131 kts 234°
2026-05-07 18:05 -34.83966 -56.03261 305 ft 160 kts 237°
2026-05-07 18:05 -34.84650 -56.04342 946 ft 162 kts 235°
2026-05-07 18:05 -34.85362 -56.05416 1561 ft 169 kts 226°
2026-05-07 18:05 -34.86366 -56.06313 1940 ft 193 kts 210°
2026-05-07 18:06 -34.87719 -56.06891 2334 ft 220 kts 195°
2026-05-07 18:06 -34.89275 -56.07271 2727 ft 242 kts 198°
2026-05-07 18:06 -34.90964 -56.07841 3171 ft 262 kts 200°
2026-05-07 18:06 -34.92786 -56.08416 3807 ft 274 kts 197°
2026-05-07 18:07 -34.94648 -56.08959 4710 ft 273 kts 195°
2026-05-07 18:07 -34.96481 -56.09531 5714 ft 271 kts 198°
2026-05-07 18:07 -34.98283 -56.10153 6711 ft 270 kts 198°
2026-05-07 18:07 -35.00094 -56.10828 7610 ft 274 kts 199°
2026-05-07 18:08 -35.01921 -56.11557 8496 ft 278 kts 201°
2026-05-07 18:08 -35.03517 -56.12879 9339 ft 284 kts 230°
2026-05-07 18:08 -35.04164 -56.14272 9806 ft 291 kts 250°
2026-05-07 18:08 -35.04455 -56.16800 10178 ft 314 kts 270°
2026-05-07 18:09 -35.04205 -56.19542 10521 ft 336 kts 279°
2026-05-07 18:09 -35.03737 -56.22397 11040 ft 349 kts 281°
2026-05-07 18:09 -35.03252 -56.25312 11823 ft 352 kts 279°
2026-05-07 18:09 -35.02834 -56.28267 12630 ft 354 kts 277°
2026-05-07 18:10 -35.02497 -56.31237 13512 ft 354 kts 276°
2026-05-07 18:10 -35.02232 -56.34199 14401 ft 349 kts 276°
2026-05-07 18:10 -35.02005 -56.37145 15109 ft 350 kts 277°
2026-05-07 18:10 -35.01793 -56.40094 15491 ft 348 kts 277°
2026-05-07 18:11 -35.01588 -56.43059 15596 ft 356 kts 277°
2026-05-07 18:11 -35.01379 -56.46091 15599 ft 360 kts 277°
2026-05-07 18:11 -35.01167 -56.49138 15595 ft 361 kts 277°
2026-05-07 18:11 -35.00952 -56.52194 15596 ft 361 kts 278°
2026-05-07 18:12 -35.00734 -56.55230 15594 ft 359 kts 278°
2026-05-07 18:12 -35.00514 -56.58260 15601 ft 358 kts 278°
2026-05-07 18:12 -35.00293 -56.61277 15592 ft 358 kts 278°
2026-05-07 18:12 -35.00070 -56.64297 15592 ft 358 kts 278°
2026-05-07 18:13 -34.99846 -56.67320 15593 ft 357 kts 278°
2026-05-07 18:13 -34.99622 -56.70339 15592 ft 357 kts 278°
2026-05-07 18:13 -34.99397 -56.73357 15600 ft 357 kts 278°
2026-05-07 18:13 -34.99171 -56.76375 15600 ft 357 kts 278°
2026-05-07 18:14 -34.98946 -56.79392 15598 ft 357 kts 278°
2026-05-07 18:14 -34.98718 -56.82413 15598 ft 358 kts 278°
2026-05-07 18:14 -34.98491 -56.85427 15605 ft 358 kts 278°
2026-05-07 18:14 -34.98258 -56.88449 15595 ft 357 kts 278°
2026-05-07 18:15 -34.98009 -56.91419 15596 ft 357 kts 279°
2026-05-07 18:15 -34.97750 -56.94430 15597 ft 357 kts 279°
2026-05-07 18:15 -34.97489 -56.97440 15600 ft 357 kts 279°
2026-05-07 18:15 -34.97227 -57.00455 15600 ft 357 kts 279°
2026-05-07 18:16 -34.96964 -57.03471 15599 ft 357 kts 279°
2026-05-07 18:16 -34.96701 -57.06479 15591 ft 357 kts 279°
2026-05-07 18:16 -34.96441 -57.09464 15400 ft 348 kts 279°
2026-05-07 18:16 -34.96188 -57.12356 15191 ft 340 kts 279°
2026-05-07 18:17 -34.95935 -57.15221 14934 ft 341 kts 278°
2026-05-07 18:17 -34.95679 -57.18100 14698 ft 343 kts 278°
2026-05-07 18:17 -34.95422 -57.20995 14457 ft 344 kts 278°
2026-05-07 18:17 -34.95165 -57.23882 14225 ft 340 kts 277°
2026-05-07 18:18 -34.94913 -57.26716 13895 ft 332 kts 277°
2026-05-07 18:18 -34.94666 -57.29499 13479 ft 329 kts 277°
2026-05-07 18:18 -34.94418 -57.32255 13012 ft 326 kts 276°
2026-05-07 18:18 -34.94169 -57.34992 12578 ft 322 kts 276°
2026-05-07 18:19 -34.93926 -57.37697 12182 ft 322 kts 276°
2026-05-07 18:19 -34.93682 -57.40407 11772 ft 321 kts 277°
2026-05-07 18:19 -34.93440 -57.43099 11355 ft 317 kts 277°
2026-05-07 18:19 -34.93200 -57.45755 10943 ft 315 kts 277°
2026-05-07 18:20 -34.92961 -57.48392 10566 ft 311 kts 277°
2026-05-07 18:20 -34.92726 -57.50965 10468 ft 298 kts 277°
2026-05-07 18:20 -34.92500 -57.53425 10361 ft 286 kts 277°
2026-05-07 18:20 -34.92284 -57.55787 10231 ft 275 kts 277°
2026-05-07 18:21 -34.92075 -57.58063 10122 ft 266 kts 276°
2026-05-07 18:21 -34.91872 -57.60274 10006 ft 261 kts 277°
2026-05-07 18:21 -34.91669 -57.62476 9838 ft 263 kts 276°
2026-05-07 18:21 -34.91531 -57.63945 9642 ft 263 kts 276°
2026-05-07 18:22 -34.91223 -57.67274 9176 ft 260 kts 277°
2026-05-07 18:22 -34.91088 -57.68725 8994 ft 259 kts 277°
2026-05-07 18:22 -34.90820 -57.71611 8621 ft 254 kts 276°
2026-05-07 18:22 -34.90620 -57.73750 8350 ft 255 kts 276°
2026-05-07 18:23 -34.90411 -57.75909 8057 ft 257 kts 277°
2026-05-07 18:23 -34.90203 -57.78085 7772 ft 260 kts 276°
2026-05-07 18:23 -34.90007 -57.80271 7486 ft 259 kts 276°
2026-05-07 18:23 -34.89808 -57.82454 7192 ft 259 kts 276°
2026-05-07 18:24 -34.89608 -57.84625 6923 ft 257 kts 276°
2026-05-07 18:24 -34.89404 -57.86787 6624 ft 257 kts 276°
2026-05-07 18:24 -34.89204 -57.88943 6345 ft 255 kts 276°
2026-05-07 18:24 -34.88999 -57.91081 6050 ft 254 kts 276°
2026-05-07 18:25 -34.88796 -57.93207 5753 ft 250 kts 276°
2026-05-07 18:25 -34.88596 -57.95298 5477 ft 246 kts 276°
2026-05-07 18:25 -34.88399 -57.97353 5211 ft 243 kts 276°
2026-05-07 18:25 -34.88206 -57.99382 4945 ft 241 kts 276°
2026-05-07 18:26 -34.88009 -58.01420 4654 ft 242 kts 276°
2026-05-07 18:26 -34.87814 -58.03426 4391 ft 243 kts 275°
2026-05-07 18:26 -34.87616 -58.05475 4249 ft 242 kts 275°
2026-05-07 18:26 -34.87423 -58.07483 4132 ft 235 kts 274°
2026-05-07 18:27 -34.87239 -58.09424 4075 ft 227 kts 275°
2026-05-07 18:27 -34.87058 -58.11311 4014 ft 222 kts 275°
2026-05-07 18:27 -34.86879 -58.13169 3922 ft 220 kts 275°
2026-05-07 18:27 -34.86761 -58.14379 3891 ft 213 kts 274°
2026-05-07 18:28 -34.86533 -58.16675 3718 ft 196 kts 273°
2026-05-07 18:28 -34.86376 -58.18296 3415 ft 192 kts 272°
2026-05-07 18:28 -34.86224 -58.19884 3179 ft 182 kts 271°
2026-05-07 18:28 -34.86103 -58.21376 3002 ft 175 kts 268°
2026-05-07 18:29 -34.86076 -58.22849 2886 ft 174 kts 266°
2026-05-07 18:29 -34.86075 -58.24324 2817 ft 174 kts 265°
2026-05-07 18:29 -34.86079 -58.25792 2724 ft 173 kts 265°
2026-05-07 18:29 -34.86081 -58.27253 2640 ft 173 kts 266°
2026-05-07 18:30 -34.86083 -58.28723 2566 ft 174 kts 266°
2026-05-07 18:30 -34.86083 -58.29696 2537 ft 173 kts 266°
2026-05-07 18:30 -34.86082 -58.31161 2503 ft 174 kts 267°
2026-05-07 18:30 -34.85878 -58.33132 2382 ft 173 kts 276°
2026-05-07 18:31 -34.85717 -58.34061 2382 ft 166 kts 277°
2026-05-07 18:31 -34.85477 -58.35369 2323 ft 151 kts 277°
2026-05-07 18:31 -34.85257 -58.36562 2199 ft 138 kts 276°
2026-05-07 18:31 -34.85059 -58.37650 2151 ft 125 kts 275°
2026-05-07 18:32 -34.84879 -58.38655 2054 ft 119 kts 275°
2026-05-07 18:32 -34.84704 -58.39644 1871 ft 120 kts 274°
2026-05-07 18:32 -34.84531 -58.40638 1728 ft 122 kts 276°
2026-05-07 18:32 -34.84356 -58.41624 1683 ft 116 kts 277°
2026-05-07 18:33 -34.84183 -58.42586 1569 ft 118 kts 275°
2026-05-07 18:33 -34.84010 -58.43565 1400 ft 119 kts 276°
2026-05-07 18:33 -34.83834 -58.44540 1211 ft 117 kts 277°
2026-05-07 18:33 -34.83652 -58.45503 1036 ft 118 kts 276°
2026-05-07 18:34 -34.83474 -58.46481 902 ft 118 kts 276°
2026-05-07 18:34 -34.83312 -58.47453 796 ft 116 kts 276°
2026-05-07 18:34 -34.83140 -58.48413 673 ft 117 kts 278°
2026-05-07 18:34 -34.82973 -58.49369 575 ft 114 kts 278°
2026-05-07 18:35 -34.82807 -58.50315 425 ft 115 kts 279°
2026-05-07 18:35 -34.82647 -58.51262 238 ft 114 kts 279°
2026-05-07 18:35 -34.82474 -58.52187 106 ft 110 kts 281°
2026-05-07 18:35 -34.82328 -58.52995 90 ft 77 kts 283°
2026-05-07 18:36 -34.82254 -58.53395 90 ft 26 kts 282°
2026-05-07 18:36 -34.82220 -58.53598 88 ft 24 kts 281°
2026-05-07 18:36 -34.82182 -58.53793 89 ft 23 kts 284°
2026-05-07 18:36 -34.82130 -58.53910 90 ft 8 kts 358°
2026-05-07 18:37 -34.82102 -58.53878 86 ft 10 kts 49°
2026-05-07 18:37 -34.82056 -58.53819 87 ft 9 kts 46°
2026-05-07 18:37 -34.82003 -58.53752 83 ft 13 kts 45°
2026-05-07 18:37 -34.81935 -58.53669 83 ft 15 kts 45°
2026-05-07 18:38 -34.81850 -58.53664 81 ft 13 kts 339°
2026-05-07 18:38 -34.81784 -58.53700 84 ft 9 kts 335°
2026-05-07 18:38 -34.81721 -58.53735 84 ft 11 kts 335°
2026-05-07 18:38 -34.81689 -58.53784 83 ft 5 kts 273°
2026-05-07 18:39 -34.81702 -58.53835 83 ft 6 kts 251°
2026-05-07 18:39 -34.81693 -58.53877 84 ft 5 kts 314°
2026-05-07 18:39 -34.81671 -58.53904 84 ft 5 kts 315°
2026-05-07 18:39 -34.81641 -58.53940 83 ft 7 kts 315°
2026-05-07 18:40 -34.81608 -58.53977 84 ft 5 kts 320°
2026-05-07 18:40 -34.81605 -58.53981 82 ft 0 kts 320°